Location: Unspecified
(0.0000°N, 0.0000°E)
Time: 20:07:22
(UTC+02:00)

GPS 2-15 Rocket1 - Visible Passes

Search period start: 22 April 2018 00:00
Search period end: 02 May 2018 00:00
Orbit: 624 x 676 km, 19.8° (Epoch: 22 April)

Date Brightness Start Highest point End Pass type
(mag) Time Alt. Az. Time Alt. Az. Time Alt. Az.
22 Apr 4.4 06:26:20 24° NNW 06:28:20 35° NNE 06:32:35 10° E visible
22 Apr 4.1 20:20:58 10° W 20:25:46 49° NNW 20:30:32 10° NE visible
22 Apr 5.4 22:06:54 10° WNW 22:10:13 18° NNW 22:10:17 18° NNW visible
23 Apr 6.2 05:13:43 11° ENE 05:13:43 11° ENE 05:13:54 10° ENE visible
23 Apr 3.3 06:51:24 19° WNW 06:54:38 69° NNE 06:59:15 10° ESE visible
23 Apr 5.0 20:47:52 10° WNW 20:52:05 27° NNW 20:56:17 10° NE visible
23 Apr 6.2 22:35:12 10° NNW 22:35:19 10° NNW 22:35:19 10° NNW visible
24 Apr 5.2 05:38:47 25° ENE 05:38:47 25° ENE 05:41:01 10° E visible
24 Apr 3.2 07:16:28 11° W 07:20:53 60° SSW 07:25:28 10° ESE visible
24 Apr 5.6 21:15:21 10° NW 21:18:31 17° NNW 21:21:41 10° NNE visible
25 Apr 3.6 06:03:52 56° E 06:03:52 56° E 06:07:37 10° ESE visible
25 Apr 5.9 21:43:51 10° NNW 21:45:06 11° NNW 21:46:20 10° N visible
26 Apr 3.2 06:28:57 53° SW 06:29:13 54° SSW 06:33:46 10° ESE visible
26 Apr 5.7 20:23:50 10° NW 20:26:49 16° NNW 20:29:46 10° NNE visible
27 Apr 4.1 06:53:59 24° SW 06:55:31 29° SSW 06:59:34 10° SE visible
27 Apr 6.0 20:52:46 10° NNW 20:53:25 10° NNW 20:54:02 10° N visible
28 Apr 5.6 05:41:18 14° SE 05:41:18 14° SE 05:42:05 10° SE visible
28 Apr 4.9 07:18:59 10° WSW 07:21:55 17° SSW 07:24:58 10° SSE visible
29 Apr 5.1 06:06:16 18° SSE 06:06:16 18° SSE 06:07:49 10° SE visible
30 Apr 5.1 06:31:09 15° S 06:31:09 15° S 06:33:10 10° SSE visible
01 May 5.3 06:56:27 10° SSW 06:56:50 10° SSW 06:57:12 10° S visible
